Location: Peebles
(55.6412°N, 3.1714°W)
Time: 14:32:30
(UTC+01:00)

FLOCK 4S 19 - Pass Details

Date: 03 July 2022
Orbit: 507 x 523 km, 97.4° (Epoch: 16 August)

Event Time Altitude Azimuth Distance (km) Brightness Sun altitude
Rises 23:19:52 0° 213° (SSW) 2,653 ? -7.6°
Reaches altitude 10° 23:22:48 10° 239° (WSW) 1,771 ? -7.8°
Maximum altitude 23:24:56 14° 273° (W) 1,517 ? -7.9°
Drops below altitude 10° 23:27:04 10° 307° (NW) 1,778 ? -8.0°
Sets 23:30:03 0° 332° (NNW) 2,672 ? -8.2°
